FLOCK 3P'-4 (43122 NORAD) Tracking and Keplerian Element Data

This shows tracking and keplerian element data for the satellite.

Feedback or suggestion? Click here.




ElementValue
Catalog43122
NameFLOCK 3P'-4
Epoch Orbit26170
Epoch Day270.10952354
Epoch Year2022
RAAN342.7653
Inclination97.3691
Eccentricity0.0008895
Argument of Perigee19.678
Mean Anonmoly340.4801
Mean Motion15.27868645
Decay Rate7.117E-05
L11 43122U 18004M 22270.10952354 .00007117 00000+0 26400-3 0 9997
L22 43122 97.3691 342.7653 0008895 19.6780 340.4801 15.27868645261708

Live tracking and technical data element details for FLOCK 3P'-4 (NORAD 43122). FLOCK 3P'-4 can be tracked NOW for your location showing map with azimuth and elevation plus other details from your city location.

Track the satellite on the map from your city or location and see movement details for azimuth, elevation, latitude, longitude, range, height, and movement on the map or in text.







IsCatalogInMostPopularTable: catalog: 43122, numindb: 594
Update: records affected: 1



GetName: 43122 FLOCK 3P'-4

Hit Count: updated at: Thu, 29 Sep 2022 10:39:22 GMT